Myrtle Beach, SC

10:16 AM EDT on July 28, 2017 (GMT -0400)
Myrtle Beach International

Weather History for KMYR - August, 2013

Change the Weather History Date:

Thursday, August 22, 2013

  Actual Average Record
Temperature  
Mean Temperature 80 °F -  
Max Temperature 87 °F 84 °F 93 °F (2007)
Min Temperature 73 °F 70 °F 62 °F (1953)
Cooling Degree Days 15    
Growing Degree Days 30 (Base 50)    
Moisture  
Dew Point 72 °F    
Average Humidity 87    
Maximum Humidity 94    
Minimum Humidity 66    
Precipitation  
Precipitation 0.00 in - - ()
Sea Level Pressure  
Sea Level Pressure 30.12 in    
Wind  
Wind Speed 1 mph (WSW)    
Max Wind Speed 15 mph    
Max Gust Speed -    
Visibility 10 miles    
Events      
Averages and records for this station are not official NWS values.
T = Trace of Precipitation, MM = Missing Value Source: NWS Daily Summary

Daily Weather History Graph

Daily Weather History Graph

Search for Another Location

Airport or City:

Trip Planner

Search our weather history database for the weather conditions in past years. The results will help you decide how hot, cold, wet, or windy it might be!

Date:

Astronomy

Aug. 22, 2013 Rise Set
Actual Time 6:42 AM EDT 7:53 PM EDT
Civil Twilight 6:16 AM EDT 8:19 PM EDT
Nautical Twilight 5:46 AM EDT 8:50 PM EDT
Astronomical Twilight 5:14 AM EDT 9:22 PM EDT
Moon 8:46 PM EDT (8/22) 8:21 AM EDT (8/22)
Length of Visible Light 14h 02m
Length of Day
13h 10m
Waning Gibbous, 97% of the Moon is Illuminated
Aug 22
Waning Gibbous
Aug 28
Last Quarter
Sep 5
New
Sep 12
First Quarter
Sep 19
Full

Hourly Weather History & Observations

Time (EDT) Temp. Heat Index Dew Point Humidity Pressure Visibility Wind Dir Wind Speed Gust Speed Precip Events Conditions
12:15 AM 75.2 °F - 71.6 °F 89% 30.17 in 10.0 mi Calm Calm - N/A   Clear
12:35 AM 75.2 °F - 71.6 °F 89% 30.16 in 10.0 mi Calm Calm - N/A   Clear
12:55 AM 73.4 °F - 71.6 °F 94% 30.17 in 9.0 mi Calm Calm - N/A   Clear
1:15 AM 73.4 °F - 71.6 °F 94% 30.16 in 8.0 mi Calm Calm - N/A   Clear
1:35 AM 73.4 °F - 71.6 °F 94% 30.16 in 8.0 mi Calm Calm - N/A   Clear
1:55 AM 73.4 °F - 71.6 °F 94% 30.16 in 8.0 mi Calm Calm - N/A   Clear
2:15 AM 73.4 °F - 69.8 °F 88% 30.15 in 8.0 mi Calm Calm - N/A   Clear
2:35 AM 73.4 °F - 71.6 °F 94% 30.15 in 10.0 mi Calm Calm - N/A   Clear
2:55 AM 73.4 °F - 71.6 °F 94% 30.15 in 7.0 mi Calm Calm - N/A   Clear
3:15 AM 73.4 °F - 69.8 °F 88% 30.15 in 10.0 mi Calm Calm - N/A   Partly Cloudy
3:35 AM 73.4 °F - 71.6 °F 94% 30.15 in 10.0 mi Calm Calm - N/A   Clear
3:55 AM 73.4 °F - 69.8 °F 88% 30.16 in 9.0 mi Calm Calm - N/A   Clear
4:15 AM 73.4 °F - 71.6 °F 94% 30.15 in 10.0 mi Calm Calm - N/A   Clear
4:35 AM 73.4 °F - 71.6 °F 94% 30.14 in 10.0 mi Calm Calm - N/A   Clear
4:55 AM 73.4 °F - 71.6 °F 94% 30.14 in 10.0 mi Calm Calm - N/A   Clear
5:15 AM 73.4 °F - 71.6 °F 94% 30.14 in 10.0 mi Calm Calm - N/A   Clear
5:35 AM 73.4 °F - 69.8 °F 88% 30.13 in 10.0 mi Calm Calm - N/A   Clear
5:55 AM 73.4 °F - 71.6 °F 94% 30.14 in 10.0 mi Calm Calm - N/A   Clear
6:45 AM 73.4 °F - 71.6 °F 94% 30.14 in 10.0 mi Calm Calm - N/A   Clear
7:45 AM 75.2 °F - 71.6 °F 89% 30.15 in 10.0 mi West 4.6 mph - N/A   Clear
8:50 AM 78.8 °F - 73.4 °F 83% 30.15 in 10.0 mi West 5.8 mph - N/A   Clear
9:45 AM 82.4 °F 88.2 °F 73.4 °F 74% 30.16 in 10.0 mi West 4.6 mph - N/A   Clear
11:47 AM 84.2 °F 89.6 °F 71.6 °F 66% 30.14 in 10.0 mi West 5.8 mph - N/A   Scattered Clouds
12:50 PM 82.4 °F 88.2 °F 73.4 °F 74% 30.13 in 10.0 mi West 5.8 mph - N/A   Mostly Cloudy
1:45 PM 86.0 °F 93.4 °F 73.4 °F 66% 30.11 in 10.0 mi SSW 6.9 mph - N/A   Scattered Clouds
2:45 PM 87.8 °F 97.6 °F 75.2 °F 66% 30.08 in 10.0 mi South 8.1 mph - N/A   Scattered Clouds
3:45 PM 84.2 °F 90.9 °F 73.4 °F 70% 30.06 in 10.0 mi South 15.0 mph - N/A   Scattered Clouds
4:45 PM 80.6 °F 85.4 °F 73.4 °F 79% 30.05 in 10.0 mi Variable 6.9 mph - N/A   Scattered Clouds
6:45 PM 80.6 °F 85.4 °F 73.4 °F 79% 30.05 in 10.0 mi SW 6.9 mph - N/A   Scattered Clouds
7:45 PM 78.8 °F - 73.4 °F 83% 30.05 in 10.0 mi Calm Calm - N/A   Scattered Clouds
8:45 PM 77.0 °F - 73.4 °F 89% 30.05 in 10.0 mi Calm Calm - N/A   Partly Cloudy
9:50 PM 75.2 °F - 71.6 °F 89% 30.07 in 10.0 mi Calm Calm - N/A   Clear
10:45 PM 75.2 °F - 71.6 °F 89% 30.05 in 10.0 mi Calm Calm - N/A   Clear
11:15 PM 73.4 °F - 71.6 °F 94% 30.06 in 10.0 mi Calm Calm - N/A   Clear
11:35 PM 73.4 °F - 71.6 °F 94% 30.05 in 10.0 mi Calm Calm - N/A   Clear
11:55 PM 73.4 °F - 69.8 °F 88% 30.05 in 10.0 mi Calm Calm - N/A   Clear